| time (UTC) | temp F | wind direction | speed MPH | gust MPH | rain 1hr in | rain 24hr in | rain mn in | humidity % | barometer mb |
| 20260503235015 | 79 | 153 | 5.0 | 9.0 | 0.00 | 0.00 | 0.00 | 35 | 1017.3 |
| 20260503235011 | 79 | 155 | 4.0 | 8.0 | 0.00 | 0.00 | 0.00 | 36 | 1017.3 |
| 20260503234010 | 80 | 168 | 3.0 | 9.0 | 0.00 | 0.00 | 0.00 | 35 | 1017.4 |
| 20260503233513 | 80 | 171 | 4.0 | 9.0 | 0.00 | 0.00 | 0.00 | 37 | 1017.6 |
| 20260503233509 | 80 | 171 | 2.0 | 9.0 | 0.00 | 0.00 | 0.00 | 36 | 1017.6 |
| 20260503232506 | 79 | 143 | 4.0 | 10.0 | 0.00 | 0.00 | 0.00 | 36 | 1017.7 |
| 20260503232005 | 80 | 196 | 4.0 | 10.0 | 0.00 | 0.00 | 0.00 | 35 | 1017.7 |
| 20260503231508 | 80 | 123 | 3.0 | 8.0 | 0.00 | 0.00 | 0.00 | 36 | 1017.7 |
| 20260503231503 | 80 | 153 | 4.0 | 10.0 | 0.00 | 0.00 | 0.00 | 36 | 1017.6 |
| 20260503230503 | 80 | 142 | 4.0 | 10.0 | 0.00 | 0.00 | 0.00 | 35 | 1017.6 |
| 20260503225958 | 81 | 124 | 3.0 | 8.0 | 0.00 | 0.00 | 0.00 | 36 | 1017.8 |
| 20260503225458 | 81 | 137 | 3.0 | 7.0 | 0.00 | 0.00 | 0.00 | 35 | 1017.9 |
| 20260503224959 | 81 | 131 | 4.0 | 10.0 | 0.00 | 0.00 | 0.00 | 36 | 1017.7 |
| 20260503224458 | 80 | 94 | 4.0 | 11.0 | 0.00 | 0.00 | 0.00 | 36 | 1017.8 |
| 20260503223954 | 80 | 198 | 4.0 | 11.0 | 0.00 | 0.00 | 0.00 | 37 | 1017.8 |
| 20260503223459 | 80 | 155 | 5.0 | 12.0 | 0.00 | 0.00 | 0.00 | 34 | 1017.8 |
| 20260503223455 | 80 | 133 | 4.0 | 12.0 | 0.00 | 0.00 | 0.00 | 35 | 1017.9 |
| 20260503222454 | 80 | 142 | 5.0 | 13.0 | 0.00 | 0.00 | 0.00 | 35 | 1017.8 |
| 20260503221955 | 80 | 126 | 4.0 | 13.0 | 0.00 | 0.00 | 0.00 | 34 | 1018.0 |
| 20260503221454 | 81 | 121 | 3.0 | 8.0 | 0.00 | 0.00 | 0.00 | 34 | 1018.1 |
| 20260503220955 | 81 | 109 | 3.0 | 8.0 | 0.00 | 0.00 | 0.00 | 35 | 1018.1 |
| 20260503220455 | 80 | 122 | 5.0 | 10.0 | 0.00 | 0.00 | 0.00 | 35 | 1018.2 |
| 20260503215955 | 80 | 172 | 5.0 | 10.0 | 0.00 | 0.00 | 0.00 | 33 | 1018.4 |
| 20260503215456 | 81 | 167 | 4.0 | 9.0 | 0.00 | 0.00 | 0.00 | 33 | 1018.5 |
| 20260503214954 | 81 | 146 | 4.0 | 9.0 | 0.00 | 0.00 | 0.00 | 34 | 1018.5 |
| 20260503214459 | 81 | 113 | 4.0 | 9.0 | 0.00 | 0.00 | 0.00 | 34 | 1018.9 |
| 20260503214455 | 81 | 142 | 3.0 | 9.0 | 0.00 | 0.00 | 0.00 | 34 | 1018.8 |
| 20260503213455 | 81 | 176 | 3.0 | 9.0 | 0.00 | 0.00 | 0.00 | 33 | 1019.0 |
| 20260503212955 | 81 | 108 | 2.0 | 8.0 | 0.00 | 0.00 | 0.00 | 35 | 1019.0 |
| 20260503212454 | 80 | 38 | 4.0 | 13.0 | 0.00 | 0.00 | 0.00 | 35 | 1019.0 |
| 20260503211955 | 81 | 200 | 5.0 | 13.0 | 0.00 | 0.00 | 0.00 | 33 | 1019.1 |
| 20260503211454 | 80 | 164 | 4.0 | 11.0 | 0.00 | 0.00 | 0.00 | 33 | 1019.4 |
| 20260503210959 | 80 | 155 | 4.0 | 10.0 | 0.00 | 0.00 | 0.00 | 33 | 1019.5 |
| 20260503210955 | 80 | 183 | 3.0 | 8.0 | 0.00 | 0.00 | 0.00 | 34 | 1019.4 |
| 20260503205954 | 80 | 148 | 4.0 | 10.0 | 0.00 | 0.00 | 0.00 | 35 | 1019.5 |
| 20260503205455 | 80 | 120 | 4.0 | 10.0 | 0.00 | 0.00 | 0.00 | 33 | 1019.5 |
| 20260503204955 | 80 | 177 | 5.0 | 12.0 | 0.00 | 0.00 | 0.00 | 32 | 1019.8 |
| 20260503204454 | 80 | 171 | 5.0 | 12.0 | 0.00 | 0.00 | 0.00 | 30 | 1019.9 |
| 20260503203955 | 80 | 119 | 4.0 | 11.0 | 0.00 | 0.00 | 0.00 | 35 | 1020.1 |
| 20260503203454 | 79 | 135 | 5.0 | 11.0 | 0.00 | 0.00 | 0.00 | 34 | 1020.3 |
| 20260503202955 | 79 | 175 | 6.0 | 11.0 | 0.00 | 0.00 | 0.00 | 35 | 1020.3 |
| 20260503202455 | 79 | 157 | 5.0 | 14.0 | 0.00 | 0.00 | 0.00 | 34 | 1020.3 |
| 20260503201954 | 79 | 167 | 6.0 | 14.0 | 0.00 | 0.00 | 0.00 | 33 | 1020.4 |
| 20260503201455 | 79 | 192 | 7.0 | 15.0 | 0.00 | 0.00 | 0.00 | 33 | 1020.4 |
| 20260503200954 | 80 | 154 | 5.0 | 15.0 | 0.00 | 0.00 | 0.00 | 33 | 1020.4 |
| 20260503200601 | 81 | 113 | 3.0 | 10.0 | 0.00 | 0.00 | 0.00 | 35 | 1020.9 |
| 20260503200454 | 80 | 207 | 3.0 | 10.0 | 0.00 | 0.00 | 0.00 | 36 | 1020.5 |
| 20260503195959 | 80 | 161 | 4.0 | 10.0 | 0.00 | 0.00 | 0.00 | 33 | 1020.8 |
| 20260503195955 | 80 | 66 | 4.0 | 10.0 | 0.00 | 0.00 | 0.00 | 35 | 1020.7 |
| 20260503194455 | 80 | 41 | 3.0 | 10.0 | 0.00 | 0.00 | 0.00 | 35 | 1021.1 |
| 20260503193954 | 79 | 145 | 4.0 | 9.0 | 0.00 | 0.00 | 0.00 | 35 | 1021.0 |
| 20260503193453 | 78 | 80 | 4.0 | 10.0 | 0.00 | 0.00 | 0.00 | 35 | 1021.1 |
| 20260503192953 | 79 | 226 | 4.0 | 10.0 | 0.00 | 0.00 | 0.00 | 38 | 1021.1 |
| 20260503192452 | 79 | 196 | 2.0 | 8.0 | 0.00 | 0.00 | 0.00 | 37 | 1021.1 |
| 20260503191952 | 79 | 128 | 3.0 | 8.0 | 0.00 | 0.00 | 0.00 | 38 | 1021.0 |
| 20260503191451 | 79 | 126 | 4.0 | 9.0 | 0.00 | 0.00 | 0.00 | 32 | 1021.1 |
| 20260503190954 | 79 | 116 | 2.0 | 8.0 | 0.00 | 0.00 | 0.00 | 36 | 1021.4 |
| 20260503190950 | 80 | 121 | 4.0 | 9.0 | 0.00 | 0.00 | 0.00 | 33 | 1021.4 |
| 20260503185948 | 79 | 98 | 2.0 | 7.0 | 0.00 | 0.00 | 0.00 | 38 | 1021.5 |
| 20260503185448 | 78 | 90 | 3.0 | 9.0 | 0.00 | 0.00 | 0.00 | 36 | 1021.6 |
| 20260503184949 | 78 | 90 | 3.0 | 9.0 | 0.00 | 0.00 | 0.00 | 37 | 1021.6 |
| 20260503184446 | 79 | 112 | 3.0 | 8.0 | 0.00 | 0.00 | 0.00 | 35 | 1021.6 |
| 20260503183949 | 79 | 91 | 2.0 | 6.0 | 0.00 | 0.00 | 0.00 | 37 | 1021.8 |
| 20260503183945 | 79 | 113 | 3.0 | 8.0 | 0.00 | 0.00 | 0.00 | 37 | 1021.8 |
| 20260503182943 | 79 | 117 | 2.0 | 8.0 | 0.00 | 0.00 | 0.00 | 40 | 1021.9 |
| 20260503182442 | 78 | 130 | 2.0 | 8.0 | 0.00 | 0.00 | 0.00 | 42 | 1022.0 |
| 20260503181941 | 76 | 126 | 3.0 | 10.0 | 0.00 | 0.00 | 0.00 | 43 | 1022.0 |
| 20260503181441 | 77 | 207 | 4.0 | 11.0 | 0.00 | 0.00 | 0.00 | 41 | 1022.3 |
| 20260503180940 | 77 | 190 | 3.0 | 11.0 | 0.00 | 0.00 | 0.00 | 40 | 1022.4 |
| 20260503180441 | 77 | 123 | 2.0 | 9.0 | 0.00 | 0.00 | 0.00 | 42 | 1022.4 |
| 20260503175944 | 76 | 167 | 4.0 | 9.0 | 0.00 | 0.00 | 0.00 | 40 | 1022.6 |
| 20260503175940 | 76 | 195 | 2.0 | 9.0 | 0.00 | 0.00 | 0.00 | 42 | 1022.6 |
| 20260503174941 | 76 | 157 | 3.0 | 10.0 | 0.00 | 0.00 | 0.00 | 40 | 1022.8 |
| 20260503174441 | 76 | 182 | 2.0 | 10.0 | 0.00 | 0.00 | 0.00 | 46 | 1023.0 |
| 20260503173941 | 76 | 142 | 2.0 | 6.0 | 0.00 | 0.00 | 0.00 | 44 | 1023.0 |
| 20260503173438 | 75 | 132 | 2.0 | 6.0 | 0.00 | 0.00 | 0.00 | 43 | 1023.1 |
| 20260503172939 | 75 | 155 | 3.0 | 8.0 | 0.00 | 0.00 | 0.00 | 47 | 1023.2 |
| 20260503172438 | 75 | 124 | 3.0 | 8.0 | 0.00 | 0.00 | 0.00 | 44 | 1023.3 |
| 20260503171938 | 75 | 125 | 3.0 | 16.0 | 0.00 | 0.00 | 0.00 | 47 | 1023.5 |
| 20260503171440 | 75 | 143 | 3.0 | 16.0 | 0.00 | 0.00 | 0.00 | 46 | 1023.6 |
| 20260503170936 | 74 | 155 | 3.0 | 10.0 | 0.00 | 0.00 | 0.00 | 47 | 1023.5 |
| 20260503170438 | 74 | 128 | 4.0 | 10.0 | 0.00 | 0.00 | 0.00 | 46 | 1023.6 |
| 20260503150929 | 69 | 168 | 3.0 | 8.0 | 0.00 | 0.00 | 0.00 | 53 | 1024.2 |
| 20260503150429 | 69 | 158 | 3.0 | 8.0 | 0.00 | 0.00 | 0.00 | 55 | 1024.2 |
| 20260503131419 | 64 | 20 | 0.0 | 0.0 | 0.00 | 0.00 | 0.00 | 69 | 1023.3 |
| 20260503131023 | 63 | 19 | 0.0 | 0.0 | 0.00 | 0.00 | 0.00 | 72 | 1023.3 |
| 20260503130523 | 62 | 20 | 0.0 | 0.0 | 0.00 | 0.00 | 0.00 | 73 | 1023.2 |
| 20260503110413 | 53 | 82 | 0.0 | 0.0 | 0.00 | 0.00 | 0.00 | 81 | 1022.1 |
| 20260503090406 | 56 | 82 | 0.0 | 1.0 | 0.00 | 0.00 | 0.00 | 75 | 1021.4 |
| 20260503081358 | 59 | 82 | 1.0 | 2.0 | 0.00 | 0.00 | 0.00 | 69 | 1021.8 |
| 20260503080856 | 59 | 82 | 1.0 | 2.0 | 0.00 | 0.00 | 0.00 | 69 | 1021.8 |
| 20260503080354 | 59 | 82 | 1.0 | 2.0 | 0.00 | 0.00 | 0.00 | 69 | 1021.8 |
| 20260503072847 | 59 | 120 | 1.0 | 1.0 | 0.00 | 0.00 | 0.00 | 69 | 1022.3 |
| 20260503072346 | 59 | 121 | 1.0 | 1.0 | 0.00 | 0.00 | 0.00 | 68 | 1022.3 |
| 20260503071850 | 59 | 121 | 0.0 | 1.0 | 0.00 | 0.00 | 0.00 | 69 | 1022.4 |
| 20260503071846 | 60 | 121 | 1.0 | 1.0 | 0.00 | 0.00 | 0.00 | 68 | 1022.3 |
| 20260503070846 | 58 | 121 | 0.0 | 1.0 | 0.00 | 0.00 | 0.00 | 71 | 1022.6 |
| 20260503070842 | 59 | 121 | 0.0 | 1.0 | 0.00 | 0.00 | 0.00 | 70 | 1022.6 |
| 20260503070447 | 58 | 121 | 0.0 | 1.0 | 0.00 | 0.00 | 0.00 | 71 | 1022.6 |
| 20260503054826 | 58 | 121 | 0.0 | 0.0 | 0.00 | 0.00 | 0.00 | 72 | 1022.8 |
| 20260503054331 | 59 | 121 | 0.0 | 0.0 | 0.00 | 0.00 | 0.00 | 72 | 1022.7 |
| 20260503054327 | 59 | 122 | 0.0 | 0.0 | 0.00 | 0.00 | 0.00 | 71 | 1022.7 |
| 20260503053324 | 59 | 121 | 0.0 | 1.0 | 0.00 | 0.00 | 0.00 | 71 | 1022.6 |
| 20260503052825 | 59 | 121 | 0.0 | 1.0 | 0.00 | 0.00 | 0.00 | 71 | 1022.5 |
| 20260503052324 | 59 | 121 | 0.0 | 1.0 | 0.00 | 0.00 | 0.00 | 70 | 1022.6 |
| 20260503051827 | 60 | 121 | 0.0 | 1.0 | 0.00 | 0.00 | 0.00 | 69 | 1022.6 |
| 20260503051823 | 60 | 121 | 0.0 | 0.0 | 0.00 | 0.00 | 0.00 | 68 | 1022.6 |
| 20260503050822 | 60 | 121 | 0.0 | 0.0 | 0.00 | 0.00 | 0.00 | 68 | 1022.5 |
| 20260503050323 | 60 | 121 | 0.0 | 0.0 | 0.00 | 0.00 | 0.00 | 68 | 1022.5 |
| 20260503045823 | 61 | 121 | 0.0 | 1.0 | 0.00 | 0.00 | 0.00 | 66 | 1022.3 |
| 20260503045322 | 61 | 121 | 0.0 | 1.0 | 0.00 | 0.00 | 0.00 | 64 | 1022.4 |
| 20260503044821 | 61 | 121 | 0.0 | 0.0 | 0.00 | 0.00 | 0.00 | 64 | 1022.5 |
| 20260503044320 | 61 | 121 | 0.0 | 1.0 | 0.00 | 0.00 | 0.00 | 65 | 1022.4 |
| 20260503043821 | 61 | 121 | 0.0 | 1.0 | 0.00 | 0.00 | 0.00 | 66 | 1022.4 |
| 20260503043320 | 61 | 121 | 0.0 | 0.0 | 0.00 | 0.00 | 0.00 | 65 | 1022.4 |
| 20260503042820 | 61 | 121 | 0.0 | 0.0 | 0.00 | 0.00 | 0.00 | 66 | 1022.4 |
| 20260503042321 | 61 | 121 | 0.0 | 0.0 | 0.00 | 0.00 | 0.00 | 65 | 1022.4 |
| 20260503041820 | 62 | 121 | 0.0 | 1.0 | 0.00 | 0.00 | 0.00 | 64 | 1022.4 |
| 20260503041323 | 62 | 121 | 0.0 | 1.0 | 0.00 | 0.00 | 0.00 | 62 | 1022.5 |
| 20260503041319 | 62 | 121 | 0.0 | 1.0 | 0.00 | 0.00 | 0.00 | 62 | 1022.6 |
| 20260503040923 | 62 | 121 | 0.0 | 1.0 | 0.00 | 0.00 | 0.00 | 61 | 1022.5 |
| 20260503035818 | 62 | 121 | 0.0 | 1.0 | 0.00 | 0.00 | 0.00 | 61 | 1022.4 |
| 20260503035318 | 62 | 121 | 0.0 | 1.0 | 0.00 | 0.00 | 0.00 | 62 | 1022.3 |
| 20260503034823 | 62 | 121 | 0.0 | 1.0 | 0.00 | 0.00 | 0.00 | 62 | 1022.0 |
| 20260503034819 | 62 | 121 | 0.0 | 1.0 | 0.00 | 0.00 | 0.00 | 63 | 1022.1 |
| 20260503033818 | 63 | 121 | 0.0 | 1.0 | 0.00 | 0.00 | 0.00 | 62 | 1022.1 |
| 20260503033322 | 63 | 121 | 0.0 | 1.0 | 0.00 | 0.00 | 0.00 | 60 | 1022.0 |
| 20260503033318 | 63 | 121 | 0.0 | 1.0 | 0.00 | 0.00 | 0.00 | 60 | 1022.1 |
| 20260503032322 | 63 | 121 | 0.0 | 1.0 | 0.00 | 0.00 | 0.00 | 60 | 1022.0 |
| 20260503032318 | 63 | 121 | 0.0 | 1.0 | 0.00 | 0.00 | 0.00 | 60 | 1021.9 |
| 20260503031318 | 63 | 122 | 0.0 | 1.0 | 0.00 | 0.00 | 0.00 | 59 | 1021.9 |
| 20260503030823 | 63 | 121 | 0.0 | 1.0 | 0.00 | 0.00 | 0.00 | 59 | 1021.8 |
| 20260503030819 | 63 | 121 | 0.0 | 1.0 | 0.00 | 0.00 | 0.00 | 59 | 1021.8 |
| 20260503025823 | 64 | 121 | 0.0 | 1.0 | 0.00 | 0.00 | 0.00 | 57 | 1021.7 |
| 20260503025819 | 64 | 122 | 0.0 | 1.0 | 0.00 | 0.00 | 0.00 | 59 | 1021.8 |
| 20260503024823 | 65 | 121 | 0.0 | 1.0 | 0.00 | 0.00 | 0.00 | 55 | 1021.6 |
| 20260503024819 | 64 | 121 | 0.0 | 1.0 | 0.00 | 0.00 | 0.00 | 55 | 1021.7 |
| 20260503023819 | 65 | 121 | 0.0 | 1.0 | 0.00 | 0.00 | 0.00 | 54 | 1021.5 |
| 20260503023318 | 66 | 121 | 0.0 | 1.0 | 0.00 | 0.00 | 0.00 | 53 | 1021.4 |
| 20260503022819 | 66 | 123 | 0.0 | 2.0 | 0.00 | 0.00 | 0.00 | 52 | 1021.4 |
| 20260503022318 | 67 | 123 | 0.0 | 2.0 | 0.00 | 0.00 | 0.00 | 52 | 1021.4 |
| 20260503021817 | 67 | 123 | 0.0 | 2.0 | 0.00 | 0.00 | 0.00 | 51 | 1021.3 |
| 20260503021316 | 67 | 125 | 0.0 | 4.0 | 0.00 | 0.00 | 0.00 | 50 | 1021.2 |
| 20260503020821 | 68 | 88 | 0.0 | 4.0 | 0.00 | 0.00 | 0.00 | 49 | 1020.9 |
| 20260503020817 | 67 | 126 | 1.0 | 4.0 | 0.00 | 0.00 | 0.00 | 50 | 1021.1 |
| 20260503015816 | 68 | 88 | 1.0 | 4.0 | 0.00 | 0.00 | 0.00 | 49 | 1020.9 |
| 20260503015317 | 69 | 89 | 1.0 | 4.0 | 0.00 | 0.00 | 0.00 | 48 | 1020.8 |
| 20260503014816 | 69 | 88 | 1.0 | 4.0 | 0.00 | 0.00 | 0.00 | 48 | 1020.7 |
| 20260503014315 | 69 | 65 | 0.0 | 4.0 | 0.00 | 0.00 | 0.00 | 48 | 1020.6 |
| 20260503013814 | 69 | 62 | 0.0 | 1.0 | 0.00 | 0.00 | 0.00 | 49 | 1020.5 |
| 20260503013315 | 69 | 62 | 0.0 | 1.0 | 0.00 | 0.00 | 0.00 | 49 | 1020.4 |
| 20260503012813 | 69 | 62 | 0.0 | 0.0 | 0.00 | 0.00 | 0.00 | 49 | 1020.4 |
| 20260503012312 | 70 | 62 | 0.0 | 1.0 | 0.00 | 0.00 | 0.00 | 46 | 1020.4 |
| 20260503011811 | 70 | 62 | 0.0 | 2.0 | 0.00 | 0.00 | 0.00 | 45 | 1020.4 |
| 20260503011310 | 71 | 61 | 0.0 | 5.0 | 0.00 | 0.00 | 0.00 | 44 | 1020.3 |
| 20260503010808 | 71 | 61 | 0.0 | 5.0 | 0.00 | 0.00 | 0.00 | 43 | 1020.3 |
| 20260503010309 | 72 | 61 | 1.0 | 7.0 | 0.00 | 0.00 | 0.00 | 42 | 1020.3 |
| 20260503005809 | 73 | 61 | 2.0 | 7.0 | 0.00 | 0.00 | 0.00 | 42 | 1020.2 |
| 20260503005308 | 73 | 327 | 3.0 | 6.0 | 0.00 | 0.00 | 0.00 | 41 | 1020.1 |
| 20260503004808 | 73 | 55 | 3.0 | 6.0 | 0.00 | 0.00 | 0.00 | 40 | 1020.1 |
| 20260503004309 | 73 | 34 | 3.0 | 6.0 | 0.00 | 0.00 | 0.00 | 39 | 1020.1 |
| 20260503003808 | 74 | 71 | 3.0 | 7.0 | 0.00 | 0.00 | 0.00 | 39 | 1020.0 |
| 20260503003309 | 74 | 44 | 2.0 | 7.0 | 0.00 | 0.00 | 0.00 | 39 | 1020.0 |
| 20260503002808 | 74 | 31 | 2.0 | 6.0 | 0.00 | 0.00 | 0.00 | 39 | 1019.9 |
| 20260503002309 | 75 | 53 | 2.0 | 8.0 | 0.00 | 0.00 | 0.00 | 39 | 1019.9 |
| 20260503001807 | 75 | 92 | 2.0 | 8.0 | 0.00 | 0.00 | 0.00 | 38 | 1019.8 |
| 20260503001308 | 75 | 31 | 3.0 | 7.0 | 0.00 | 0.00 | 0.00 | 38 | 1019.8 |
| 20260503000804 | 75 | 68 | 3.0 | 8.0 | 0.00 | 0.00 | 0.00 | 37 | 1020.0 |
| 20260503000305 | 75 | 110 | 3.0 | 8.0 | 0.00 | 0.00 | 0.00 | 37 | 1020.0 |
| 20260502235803 | 75 | 28 | 4.0 | 9.0 | 0.00 | 0.00 | 0.00 | 37 | 1020.0 |
| 20260502235304 | 75 | 44 | 4.0 | 9.0 | 0.00 | 0.00 | 0.00 | 38 | 1020.0 |